CZ-6A DEB, 55213

Orbit data source: Space-Track

CZ-6A DEB, 55213 is space debris in SSO originally from a launch on Fri, 11 Nov 2022 UTC launched from the Taiyaun Space Center, China (TSC). Debris objects in space refer to the collection of defunct objects orbiting the Earth. Examples of debris include non-operational satellites, rocket bodies, and fragments generated from explosions, collisions, or faulty payload assembly.

Loading next visibility...
Identifier
55213, 2022-151WE
Orbit
SSO
Country
Flag of CNCN / PRC
Related business
Manufacturer
SAST
Mission
Spacecraft
Bus & Motor
Unknown
Mass
Unknown
Launch date (UTC)
2022-11-11 (4 years ago)
Launch vehicle
Unknown
Launch site
Taiyaun Space Center, China (TSC)
Object type
Payload
Rocket body
Debris
Shape & HBR
Unknown shape, 0.1 m
Radar Cross Section
Small (<0.1 m²)

Expand to show TLE details & history
Last TLE update: 2 days ago

TLE from 2 days ago
0 CZ-6A DEB
1 55213U 22151WE  26171.09998318  .00002819  00000-0  60928-3 0  9999
2 55213  98.6187 225.1470 0088030 307.4097  51.9111 14.56773009184550
Epoch: 2026-06-20T02:23Z
TLE epoch observation values (Epoch: 2026-06-20T02:23:58.546Z)
Latitude
0.00001°
Longitude
-79.1664°
Altitude
668.459 km
Speed
7.543 km/s
True Right ascension
15h 00m 35s
True Declination
0° 00' 00"
Sunlit
Object was in full shadow at epoch
Visualization orbit readout
Latitude
Unknown
Longitude
Unknown
Altitude
Unknown
Speed
Unknown
Apparent Right ascension
Unknown
Apparent Declination
Unknown
Sunlit
N/A
Visualization observer readout
Local Sidereal Time
21:33:23
Azimuth
Unknown
Elevation
Unknown
Doppler factor
Unknown
Orbital elements
Apogee altitude
763.033 km
Perigee altitude
638.403 km
Semi-major axis
7,078.855 km
Eccentricity
0.0088
Inclination
98.6187°
RAAN
225.147°
Arg. of periapsis
307.4097°
True anomaly
52.71044°
Mean anomaly
51.9111°
Eccentric anomaly
52.31023°
Mean motion
3.64417 °/min
Orbital period
98.79 mins
BSTAR
0.00060928
Loading maneuver chart data...
Computing Atmospheric mass density...
Loading historical data...
Loading historical data...
Loading historical data...
Loading historical data...
Loading historical data...
Loading historical data...
Loading historical data...

Documentation

Showing up to 5 results
|